Location: Erlach
(47.0430°N, 7.0996°E)
Time: 00:46:51
(UTC+00:00)

Cosmos 2263 Rocket - Pass Details

Date: 07 June 2020
Orbit: 825 x 847 km, 71.0° (Epoch: 11 July)

Event Time Altitude Azimuth Distance (km) Brightness Sun altitude
Rises 02:47:43 0° 316° (NW) 3,384 5.4 -7.3°
Reaches altitude 10° 02:51:33 10° 290° (WNW) 2,439 4.4 -6.8°
Maximum altitude 02:53:58 13° 264° (W) 2,224 3.9 -6.5°
Drops below altitude 10° 02:56:23 10° 238° (WSW) 2,427 3.9 -6.2°
Enters shadow 02:57:36 - 227° (SW) 2,661 4.1 -6.0°
